Regional Weather Roundup
Issued by NWS

Home | Current Version | Previous Version | Graphics & Text | Print | Product List | Glossary On
Versions: 1 2 3 4 5 6 7 8 9 10 11 12 13 14 15 16 17 18 19 20 21 22 23 24 25 26 27 28 29 30 31 32 33 34 35 36 37 38 39 40 41 42 43 44 45 46 47 48 49 50
000
ASUS45 KABQ 261810
RWRNM
NEW MEXICO REGIONAL WEATHER ROUNDUP
NATIONAL WEATHER SERVICE ALBUQUERQUE NM
1200 PM MDT MON JUN 26 2017

NOTE: "FAIR" MEANS FEW OR NO CLOUDS BELOW 12,000 FEET AGL WITH NO
       SIGNIFICANT WEATHER OR OBSTRUCTIONS TO VISION.

      THIS PRODUCT IS RELEASED AS TWO VERSIONS.  ONE VERSION NEAR
      THE TOP OF THE HOUR CONTAINING PRELIMINARY DATA FROM ALBUQUERQUE
      AND OTHER STATIONS.  A FINAL VERSION WITH ADDITIONAL DATA IS
      ISSUED ABOUT 10 MINUTES AFTER THE HOUR.

NMZ501-503-504-510>518-261900-
NORTHWEST PLATEAU/NORTHCENTRAL MOUNTAINS

CITY           SKY/WX    TMP DP  RH WIND       PRES   REMARKS
FARMINGTON     FAIR      84  45  25 VRB5      30.22F
6HR MIN TEMP:  65; 6HR MAX TEMP:  84;

LOS ALAMOS     FAIR      70  50  49 SE7       30.39F
SANTA FE       FAIR      77  51  40 S10       30.33F
6HR MIN TEMP:  56; 6HR MAX TEMP:  77;

TAOS           FAIR      72  45  37 W7          N/A
ANGEL FIRE     FAIR      68  47  45 W7        30.45F

$$
NMZ402-403-502-505>509-261900-
WESTCENTRAL MOUNTAINS/SOUTHWEST MOUNTAINS

CITY           SKY/WX    TMP DP  RH WIND       PRES   REMARKS
GALLUP         FAIR      84  38  19 VRB6      30.29F
6HR MIN TEMP:  58; 6HR MAX TEMP:  86;

GRANTS         FAIR      79  49  34 SE10      30.34S
SILVER CITY    FAIR      80  51  36 SE9G16    30.30S

$$
NMZ407-409-411-412-261900-
SOUTHERN DESERTS

CITY           SKY/WX    TMP DP  RH WIND       PRES   REMARKS
DEMING         FAIR      83  55  38 VRB7      30.22F
6HR MIN TEMP:  67; 6HR MAX TEMP:  85;

LAS CRUCES     FAIR      81  58  45 S9        30.25F
HOLLOMAN AFB   PTSUNNY   82  59  45 S13       30.23F
ALAMOGORDO     FAIR      81  57  44 S5        30.23F
T OR C         FAIR      84  49  29 S9G20     30.23F
6HR MIN TEMP:  65; 6HR MAX TEMP:  84;


$$
NMZ519>523-261900-
CENTRAL VALLEYS/CENTRAL HIGHLANDS

CITY           SKY/WX    TMP DP  RH WIND       PRES   REMARKS
ALBUQUERQUE    PTSUNNY   78  52  40 VRB6      30.27F
6HR MIN TEMP:  64; 6HR MAX TEMP:  80;

DOUBLE EAGLE   MOSUNNY   79  52  38 VRB7      30.31F
MORIARTY ARPT  FAIR      74  55  51 SE10      30.36F
6HR MIN TEMP:  49; 6HR MAX TEMP:  75;

CLINES CORNERS FAIR      65  54  67 E8G17     30.41F
6HR MIN TEMP:  52; 6HR MAX TEMP:  65;

BELEN          FAIR      79  49  35 CALM      30.26F
6HR MIN TEMP:  61; 6HR MAX TEMP:  80;

SOCORRO        FAIR      81  50  33 S9        30.24F
6HR MIN TEMP:  62; 6HR MAX TEMP:  81;


$$
NMZ524>526-539-540-261900-
SOUTHCENTRAL MOUNTAINS

CITY           SKY/WX    TMP DP  RH WIND       PRES   REMARKS
RUIDOSO        FAIR      66  54  63 NE3       30.42F

$$
NMZ527>531-261900-
NORTHEAST HIGHLANDS/NORTHEAST PLAINS

CITY           SKY/WX    TMP DP  RH WIND       PRES   REMARKS
LAS VEGAS      FAIR      67  55  65 S10       30.39F
6HR MIN TEMP:  50; 6HR MAX TEMP:  67;

RATON          FAIR      68  55  63 VRB5      30.34F
6HR MIN TEMP:  53; 6HR MAX TEMP:  70;

CLAYTON        FAIR      77  55  46 SW16G24   30.27F
6HR MIN TEMP:  56; 6HR MAX TEMP:  77;


$$
NMZ532>537-261900-
EASTCENTRAL PLAINS

CITY           SKY/WX    TMP DP  RH WIND       PRES   REMARKS
SANTA ROSA     MOCLDY    73  57  57 CALM      30.29F
TUCUMCARI      FAIR      78  56  46 MISG      30.24F
6HR MIN TEMP:  59; 6HR MAX TEMP:  78;

CANNON AFB     FAIR      77  57  50 W6        30.27F
6HR MIN TEMP:  57; 6HR MAX TEMP:  77;

CLOVIS AIRPORT FAIR      79  58  48 SW10      30.26F

$$
NMZ028-029-538-261900-
SOUTHEAST PLAINS

CITY           SKY/WX    TMP DP  RH WIND       PRES   REMARKS
ROSWELL        FAIR      78  60  53 MISG      30.24F
6HR MIN TEMP:  64; 6HR MAX TEMP:  78;

ARTESIA        PTSUNNY   79  61  53 E7        30.24F
CARLSBAD       PTSUNNY   75  66  73 VRB3      30.22F
6HR MIN TEMP:  65; 6HR MAX TEMP:  75;

HOBBS          MOSUNNY   77  59  53 NW9       30.24F


$$




USA.gov is the U.S. government's official web portal to all federal, state and local government web resources and services.